Regional Weather Roundup
Issued by NWS

Home | Current Version | Previous Version | Graphics & Text | Print | Product List | Glossary On
Versions: 1 2 3 4 5 6 7 8 9 10 11 12 13 14 15 16 17 18 19 20 21 22 23 24 25 26 27 28 29 30 31 32 33 34 35 36 37 38 39 40 41 42 43 44 45 46 47 48 49 50
638
ASUS45 KABQ 241010
RWRNM
NEW MEXICO REGIONAL WEATHER ROUNDUP
NATIONAL WEATHER SERVICE ALBUQUERQUE NM
400 AM MDT FRI MAR 24 2017

NOTE: "FAIR" MEANS FEW OR NO CLOUDS BELOW 12,000 FEET AGL WITH NO
       SIGNIFICANT WEATHER OR OBSTRUCTIONS TO VISION.

      THIS PRODUCT IS RELEASED AS TWO VERSIONS.  ONE VERSION NEAR
      THE TOP OF THE HOUR CONTAINING PRELIMINARY DATA FROM ALBUQUERQUE
      AND OTHER STATIONS.  A FINAL VERSION WITH ADDITIONAL DATA IS
      ISSUED ABOUT 10 MINUTES AFTER THE HOUR.

NMZ501-503-504-510>518-241100-
NORTHWEST PLATEAU/NORTHCENTRAL MOUNTAINS

CITY           SKY/WX    TMP DP  RH WIND       PRES   REMARKS
FARMINGTON     FAIR      41  32  70 W36G52    29.83F
LOS ALAMOS     MIX PCPN  34  31  89 SW8       29.73F WCI  27
SANTA FE         N/A     36  34  92 W24G31    29.73F WCI  24
TAOS             N/A     30  25  80 SW13G22   29.70S VSB 1   WCI  20
ANGEL FIRE     LGT SNOW  28  26  89 W17G23    29.65R VSB 1   WCI  16

$$
NMZ402-403-502-505>509-241100-
WESTCENTRAL MOUNTAINS/SOUTHWEST MOUNTAINS

CITY           SKY/WX    TMP DP  RH WIND       PRES   REMARKS
GALLUP         FAIR      35  30  82 W9        30.03R WCI  28
GRANTS         FAIR      37  28  72 NW26G38   29.92F WCI  25
SILVER CITY    FAIR      40  28  61 NW23      30.06F WCI  30

$$
NMZ407-409-411-412-241100-
SOUTHERN DESERTS

CITY           SKY/WX    TMP DP  RH WIND       PRES   REMARKS
DEMING         FAIR      44  29  55 W21G26    30.05S
LAS CRUCES     FAIR      43  28  54 W15G23    30.04R
HOLLOMAN AFB   FAIR      50  25  38 W10       29.99F
ALAMOGORDO     MOCLDY    48  25  40 SW9       29.98F
T OR C         FAIR      47  26  44 W12G21    29.94F

$$
NMZ519>523-241100-
CENTRAL VALLEYS/CENTRAL HIGHLANDS

CITY           SKY/WX    TMP DP  RH WIND       PRES   REMARKS
ALBUQUERQUE    CLOUDY    44  29  55 SW18G26   29.83F
DOUBLE EAGLE   CLOUDY    42  28  58 W25G31    29.82S
MORIARTY ARPT  CLOUDY    39  32  75 W17G26    29.79S WCI  30
CLINES CORNERS CLOUDY    33  27  78 W32G46    29.73S WCI  19
BELEN          CLOUDY    44  27  51 W16       29.86F
SOCORRO        FAIR      46  27  46 N3        29.89F

$$
NMZ524>526-539-540-241100-
SOUTHCENTRAL MOUNTAINS

CITY           SKY/WX    TMP DP  RH WIND       PRES   REMARKS
RUIDOSO        MOCLDY    36  19  51 W12G29    29.87F WCI  27

$$
NMZ527>531-241100-
NORTHEAST HIGHLANDS/NORTHEAST PLAINS

CITY           SKY/WX    TMP DP  RH WIND       PRES   REMARKS
LAS VEGAS      CLOUDY    39  23  52 SW15      29.60R WCI  31
RATON          HVY RAIN  36  32  85 NW28G39   29.50R FOG     WCI  23
CLAYTON        LGT RAIN  42  39  89 W31G44    29.39F

$$
NMZ532>537-241100-
EASTCENTRAL PLAINS

CITY           SKY/WX    TMP DP  RH WIND       PRES   REMARKS
SANTA ROSA     FAIR      44  28  53 W21G35    29.64F
TUCUMCARI      FAIR      50  28  42 W40G52    29.54F
CANNON AFB     FAIR      45  21  39 SW24G36   29.71F
CLOVIS AIRPORT FAIR      45  21  39 SW26G37   29.68F

$$
NMZ028-029-538-241100-
SOUTHEAST PLAINS

CITY           SKY/WX    TMP DP  RH WIND       PRES   REMARKS
ROSWELL        FAIR      51  20  29 W13         N/A
ARTESIA        FAIR      52  21  30 SW30G36   29.83F
CARLSBAD       FAIR      54  23  30 MISG      29.84F
HOBBS          FAIR      50  18  27 SW23G29   29.86S


$$




USA.gov is the U.S. government's official web portal to all federal, state and local government web resources and services.